Skip Page Navigation
NASA JPL Caltech
NASA Logo - Jet Propulsion Laboratory + View the NASA Portal
+ Center for Near-Earth Object Studies
JPL Home Earth Solar System Stars & Galaxies Technology
JPL Solar System Dynamics
BODIES ORBITS EPHEMERIDES TOOLS PHYSICAL DATA DISCOVERY FAQ SITE MAP
JPL Small-Body Database Browser
Search: [ help ]  
(2018 DV1)
Classification: Aten [NEO]          SPK-ID: 3799747
Ephemeris | Orbit Diagram | Orbital Elements | Mission Design | Physical Parameters | Close-Approach Data ]

[ hide orbit diagram ]

For accurate long-term ephemerides, please instead use our Horizons system.This orbit viewer was implemented using two-body methods, and hence should not be used for determining accurate long-term trajectories (over several years or decades) or planetary encounter circumstances.


Orbital Elements at Epoch 2459200.5 (2020-Dec-17.0) TDB
Reference: JPL 3 (heliocentric ecliptic J2000)
 Element Value Uncertainty (1-sigma)   Units 
e .1653434491106819 9.4499e-05  
a .9854898443095667 7.9286e-05 au
q .822545554387874 0.00014637 au
i 5.15482722551991 0.0034782 deg
node 341.0820750901501 0.0014649 deg
peri 281.5390084113613 0.031184 deg
M 225.6424184137068 0.10257 deg
tp 2459333.863300152436
(2021-Apr-29.36330015)
0.11788 TDB
period 357.3359053358762
0.98
0.043123
0.0001181
d
yr
n 1.007455435136359 0.00012158 deg/d
Q 1.148434134231259 9.2395e-05 au
  Orbit Determination Parameters
   # obs. used (total)      28  
   data-arc span      1 day  
   first obs. used      2018-02-26  
   last obs. used      2018-02-27  
   planetary ephem.      DE441  
   SB-pert. ephem.      SB441-N16  
   condition code      5  
   norm. resid. RMS      .61045  
   source      ORB  
   producer      Otto Matic  
   solution date      2021-Apr-15 20:23:29  

Additional Information
 Earth MOID = 3.15104E-6 au 
 Jupiter MOID = 3.88814 au 
 T_jup = 6.135 
[ show covariance matrix ]

Ephemeris | Orbit Diagram | Orbital Elements | Mission Design | Physical Parameters | Close-Approach Data ]

Physical Parameter Table
Parameter Symbol Value Units Sigma Reference Notes
absolute magnitude H 28.4   n/a E2018E06  

[ hide close-approach data ]
Close-Approach Data   ...sorted by Date/Time (TDB)
Date/Time (TDB) Time Uncertainty
(days_HH:MM)
Body Nominal Distance (au) Minimum Distance (au) Maximum Distance (au) V-relative (km/s) V-infinity (km/s) JD (TDB) Time Uncertainty (minutes) Semi-major axis (km) Semi-minor axis (km) range-LOV angle (deg) N-sigma BP Orbit Ref. Reference Modified
1904-Nov-21 09:26 9_23:04 Earth 0.387832265000328 0.299390372577946 0.476371215238099 17.2836652368486 17.2832677364501 2416805.892937896 14344.1392295635 4423253.70217521 593.331800066331 -3.89096826019292 5044.08667230489 T 3 CATAB v2.0g-lin.ifort 2021-Apr-15 20:23:29 2021-Apr-15 20:23
1905-Aug-11 14:09 7_10:25 Earth 0.246974366518838 0.238072554121944 0.256069815458646 7.58799786216842 7.58657594607391 2417069.089294008 10705.3974211555 565975.257078301 4128.06491023078 -37.5461768643845 3100.21455998712 T 3 CATAB v2.0g-lin.ifort 2021-Apr-15 20:23:29 2021-Apr-15 20:23
1906-Mar-01 23:50 16:38 Earth 0.00707210852126653 0.0029449022874035 0.0253452953301794 5.93072542364897 5.86685489755926 2417271.493166883 998.102045274833 935774.42776837 109.802848473032 24.980597202569 2767.15069589323 T 3 CATAB v2.0g-lin.ifort 2021-Apr-15 20:23:29 2021-Apr-15 20:23
1906-Mar-02 09:29 06:23 Moon 0.0050360834384429 0.00303492528359522 0.0230950967429019 6.70178899983612 6.70081789397587 2417271.894933216 383.357932815865 941314.331084727 54.5099798733068 37.077839630634 7587.16427515921 T 3 CATAB v2.0g-lin.ifort 2021-Apr-15 20:23:29 2021-Apr-15 20:23
1912-Nov-11 06:24 1_07:13 Earth 0.238109627384522 0.207199516058998 0.269489068497841 12.4367336063621 12.4358338088658 2419717.766440723 1872.55788871873 1640136.59617617 263.914676719903 -18.6018725314092 19701.6614231652 T 3 CATAB v2.0g-lin.ifort 2021-Apr-15 20:23:29 2021-Apr-15 20:23
1913-Jul-19 07:45 5_23:46 Earth 0.260927708726948 0.257092789898621 0.264837939414513 7.91586043153912 7.9145703135835 2419967.822810854 8625.94593983791 293556.790164246 2535.25833301149 48.8701703868437 6176.0124670574 T 3 CATAB v2.0g-lin.ifort 2021-Apr-15 20:23:29 2021-Apr-15 20:23
1914-Mar-01 22:45 16:30 Earth 0.0852162913699635 0.0493982069181186 0.121029114278899 8.43973110079896 8.43602551844671 2420193.448073937 989.735259209536 1785659.40738958 49.6831659477493 0.862818256348466 3520.10847263371 T 3 CATAB v2.0g-lin.ifort 2021-Apr-15 20:23:29 2021-Apr-15 20:23
1915-Apr-29 21:26 1_18:04 Venus 0.133777346014338 0.094798877771037 0.173342872213344 8.99628320073965 8.99447865950423 2420617.392758392 2523.99600383411 2007637.67461595 1238.14143775494 12.2223839995377 3811.55730503649 T 3 CATAB v2.0g-lin.ifort 2021-Apr-15 20:23:29 2021-Apr-15 20:23
1920-Nov-06 19:35 23:43 Earth 0.142245080629879 0.125201601428309 0.160292227944808 9.13749015621652 9.13543995303287 2422635.316171881 1423.35868100654 1058859.5504713 832.316435198305 -34.0061527738499 7414.31732561258 T 3 CATAB v2.0g-lin.ifort 2021-Apr-15 20:23:29 2021-Apr-15 20:23
1921-Jun-30 15:36 3_12:46 Earth 0.267071140080977 0.266649900073389 0.26751018989837 7.85915355167121 7.8578840166058 2422871.149774022 5085.58331807012 112370.369323508 3566.89909814919 -79.1622865290833 5765.51773288997 T 3 CATAB v2.0g-lin.ifort 2021-Apr-15 20:23:29 2021-Apr-15 20:23
1922-Feb-27 04:23 12:14 Earth 0.192299983549476 0.17388550062613 0.210715428092247 11.6390508027936 11.637860279882 2423112.682656117 733.760874313506 918530.146191357 130.454694596643 1.5624645823167 4142.7775600453 T 3 CATAB v2.0g-lin.ifort 2021-Apr-15 20:23:29 2021-Apr-15 20:23
1923-Apr-24 16:13 19:41 Venus 0.0461628978490494 0.0404488594173076 0.0557924585402347 5.36564316815587 5.35686893172584 2423534.175780360 1181.42120044789 778502.645623363 2241.44530442274 59.2406499326347 4618.22533114348 T 3 CATAB v2.0g-lin.ifort 2021-Apr-15 20:23:29 2021-Apr-15 20:23
1928-Nov-03 18:47 09:01 Earth 0.096193638930991 0.092142125942239 0.100868387077077 7.08740136572858 7.08349206782772 2425554.282461436 541.411549855429 443554.458955641 1155.17216653677 -60.5525086050637 5364.11258114628 T 3 CATAB v2.0g-lin.ifort 2021-Apr-15 20:23:29 2021-Apr-15 20:23
1929-Jun-19 16:00 1_14:41 Earth 0.264252796345629 0.263164123066856 0.265344787104424 7.60367110615032 7.60234491136129 2425782.166611827 2320.92548661973 71700.1897759585 2460.66809805143 -40.7650612865055 5408.61995500603 T 3 CATAB v2.0g-lin.ifort 2021-Apr-15 20:23:29 2021-Apr-15 20:23
1930-Feb-25 16:26 05:58 Earth 0.24937372582036 0.240406083337032 0.258341456816745 13.3911378852583 13.3903399693572 2426033.184657803 357.663606379896 447243.648530829 314.99531674047 1.1520595268534 1839.41178855366 T 3 CATAB v2.0g-lin.ifort 2021-Apr-15 20:23:29 2021-Apr-15 20:23
1931-Apr-22 02:34 09:11 Venus 0.0439294147627153 0.04101978452576 0.0474132075322826 4.71194849704816 4.70144588630753 2426453.606657153 550.910524758918 297475.565356323 2492.3782752364 -57.3218997501472 3714.10138907028 T 3 CATAB v2.0g-lin.ifort 2021-Apr-15 20:23:29 2021-Apr-15 20:23
1936-Nov-01 08:18 11:35 Earth 0.0860661917564726 0.0854900262071934 0.0875776501886282 5.50019244421652 5.49456094182115 2428473.845971772 695.167464710977 452054.14004908 1404.96470940737 83.3048620974104 4242.22006807783 T 3 CATAB v2.0g-lin.ifort 2021-Apr-15 20:23:29 2021-Apr-15 20:23
1937-Jun-09 07:37 2_04:37 Earth 0.2579816024686 0.25599268558408 0.259975033494459 7.16486561680266 7.16342396869558 2428693.817657164 3156.56884219865 112944.427920053 1982.04903868453 -28.5551097532105 4698.02285799877 T 3 CATAB v2.0g-lin.ifort 2021-Apr-15 20:23:29 2021-Apr-15 20:23
1938-Feb-23 15:00 12:04 Earth 0.307727416409593 0.295158031499945 0.320297613150577 15.1640245701882 15.1634535652508 2428953.124985102 723.79266527382 627300.009603906 107.338336607826 2.33940309697243 12021.5952839855 T 3 CATAB v2.0g-lin.ifort 2021-Apr-15 20:23:29 2021-Apr-15 20:23
1939-Apr-18 14:34 17:29 Venus 0.0805194772949188 0.0771989677165955 0.104712376969179 4.90258545649405 4.89708135181915 2429372.107200675 1049.20968446707 2389396.58017565 806.017445810043 73.5436721661954 10650.5546244207 T 3 CATAB v2.0g-lin.ifort 2021-Apr-15 20:23:29 2021-Apr-15 20:23
1944-Oct-18 22:34 6_18:46 Earth 0.123798539189987 0.115447876353385 0.134173665413979 3.87166491222491 3.86610188486722 2431382.440087759 9766.46751131286 919043.331281471 1606.23205052027 59.2265385251632 3335.45384397715 T 3 CATAB v2.0g-lin.ifort 2021-Apr-15 20:23:29 2021-Apr-15 20:23
1945-May-23 00:14 3_08:55 Earth 0.240237844291236 0.23566858538066 0.244811007231046 6.23858642271121 6.23680836180835 2431598.509705295 4854.59602231797 233008.879873124 1027.83984602179 -12.2533732157263 3514.14926576549 T 3 CATAB v2.0g-lin.ifort 2021-Apr-15 20:23:29 2021-Apr-15 20:23
1946-Feb-20 00:20 15:13 Earth 0.39545782909791 0.379992903085281 0.410923690808807 17.8487449303228 17.8483674371616 2431871.513976337 912.917269647348 771792.999186197 121.748746494889 2.29158661774995 14185.9467213216 T 3 CATAB v2.0g-lin.ifort 2021-Apr-15 20:23:29 2021-Apr-15 20:23
1952-Sep-12 18:00 3_15:08 Earth 0.185355268549563 0.179187917410581 0.192007383826778 5.63623410799221 5.63368307137161 2434268.249734249 5228.01469752585 570838.312019954 2748.51976626062 55.9386512867008 4004.7036723811 T 3 CATAB v2.0g-lin.ifort 2021-Apr-15 20:23:29 2021-Apr-15 20:23
1953-Jan-13 03:56 5_00:16 Earth 0.130551354166487 0.126957262738523 0.134233314190556 4.65653148560422 4.65214645158764 2434390.664005766 7215.52216552725 247940.633489941 2848.25923149669 -42.9487217840749 2947.57451217286 T 3 CATAB v2.0g-lin.ifort 2021-Apr-15 20:23:29 2021-Apr-15 20:23
1953-Apr-22 06:06 6_11:19 Earth 0.194631650027844 0.185310220063185 0.20421174453642 4.108616181663 4.10528284231916 2434489.753912855 9318.85845659072 589430.575724581 1871.59070309683 37.1582485476437 4288.67503271869 T 3 CATAB v2.0g-lin.ifort 2021-Apr-15 20:23:29 2021-Apr-15 20:23
